Tracking 35331 objects as of 15-Sep-2026
HD Live streaming from Space Station
objects crossing your sky now

STARLINK-35290

Track STARLINK-35290 now!
10-day predictions
STARLINK-35290 is classified as:


NORAD ID: 65846
Int'l Code: 2025-221Z
Launch date: September 29, 2025
Source: United States (US)
Launch site: AIR FORCE WESTERN TEST RANGE (AFWTR)
Your satellite tracking list
Your tracking list is empty




NASA's NSSDC Master Catalog

Two Line Element Set (TLE):
1 65846U 25221Z   26257.38999902  .00010715  00000-0  32780-3 0  9999
2 65846  53.1578 288.3459 0001535  92.4581 267.6597 15.34400929 53672
Source of the keplerian elements: AFSPC